Tracking 19903 objects as of 16-Oct-2019
HD Live streaming from Space Station
objects crossing your sky now

FENGYUN 1C DEB

Track FENGYUN 1C DEB now!
10-day predictions


NORAD ID: 32451
Int'l Code: 1999-025DBP
Perigee: 839.7 km
Apogee: 1,157.0 km
Inclination: 100.0 °
Period: 104.9 minutes
Semi major axis: 7369 km
RCS: 0.0193 m2 (small)
Launch date: May 10, 1999
Source: People's Republic of China (PRC)
Launch site: Taiyaun Space Center, China (TSC)

Note: This is SATELLITE DEBRIS
aabbcc
Your satellite tracking list
Your tracking list is empty




NASA's NSSDC Master Catalog

Two Line Element Set (TLE):
1 32451U 99025DBP 19287.37676074 +.00000647 +00000-0 +64647-3 0  9994
2 32451 100.0020 129.1671 0215270 236.8974 121.1344 13.72341376307859
Source of the keplerian elements: AFSPC